Regional Weather Roundup
Issued by NWS

Home | Current Version | Previous Version | Text Only | Print | Product List | Glossary On
Versions: 1 2 3 4 5 6 7 8 9 10 11 12 13 14 15 16 17 18 19 20 21 22 23 24 25 26 27 28 29 30 31 32 33 34 35 36 37 38 39 40 41 42 43 44 45 46 47 48 49 50
000
ASUS43 KOAX 171610
RWRNE

WEATHER ROUNDUP FOR NEBRASKA
NATIONAL WEATHER SERVICE OMAHA NE
1100 AM CDT WED SEP 17 2014

NOTES: SATELLITE DATA IS BEING USED TO AUGMENT CLOUD COVER ABOVE
       12000 FEET.
       "FAIR" INDICATES FEW OR NO CLOUDS BELOW 12,000 FEET WITH NO
       SIGNIFICANT WEATHER AND/OR OBSTRUCTIONS TO VISIBILITY.

  * THESE STATIONS DO NOT REPORT WEATHER SUCH AS RAIN...SNOW OR FOG.

NEZ001>004-019>022-054>056-171700-
NEBRASKA PANHANDLE

CITY           SKY/WX    TMP DP  RH WIND       PRES   REMARKS
SCOTTSBLUFF    SUNNY     70  48  45 NW13      30.02R
ALLIANCE       SUNNY     71  49  45 VRB3      29.99S
CHADRON        SUNNY     70  50  49 NW6       30.00R
SIDNEY         SUNNY     74  43  32 NW9       30.02F
$$

NEZ057>060-069>072-079>082-171700-
SOUTHWEST NEBRASKA

CITY           SKY/WX    TMP DP  RH WIND       PRES   REMARKS
NORTH PLATTE   PTSUNNY   59  58  96 W5        29.96S FOG
IMPERIAL       SUNNY     73  55  53 N3        29.98R
MCCOOK         MOSUNNY   57  56  96 SW6       29.96F FOG
OGALLALA       SUNNY     68  59  72 CALM      29.97S
$$

NEZ005>010-023>029-035>040-094-171700-
NORTH CENTRAL NEBRASKA

CITY           SKY/WX    TMP DP  RH WIND       PRES   REMARKS
VALENTINE      SUNNY     71  57  61 SE3       29.94S
BROKEN BOW     MOSUNNY   77  62  59 NE6       29.93S
O`NEILL        SUNNY     67  62  82 CALM      29.95R
ORD            SUNNY     66  58  75 CALM      29.93S
THEDFORD       SUNNY     76  60  57 CALM      29.95F
$$

NEZ041-046>049-061>064-073>077-083>087-171700-
SOUTH CENTRAL NEBRASKA

CITY           SKY/WX    TMP DP  RH WIND       PRES   REMARKS
GRAND ISLAND   SUNNY     67  55  65 N5        29.94F
HASTINGS       SUNNY     68  56  65 NE7       29.94R
HEBRON         CLOUDY    65  62  90 E6        29.94R
HOLDREGE       SUNNY     67  59  75 CALM      29.93F
KEARNEY *      SUNNY     64  57  77 NE5       29.94S
$$

NEZ011>018-030>034-042>045-171700-
NORTHEAST NEBRASKA

CITY           SKY/WX    TMP DP  RH WIND       PRES   REMARKS
NORFOLK        SUNNY     69  56  62 CALM      29.94R
ALBION         SUNNY     67  58  72 CALM      29.94S
COLUMBUS *     SUNNY     66  55  68 NE3       29.95R
TEKAMAH        SUNNY     69  57  65 CALM      29.94S
WAYNE          SUNNY     69  57  66 S3        29.94S
$$

NEZ050>053-065>068-078-088>093-171700-
SOUTHEAST NEBRASKA

CITY           SKY/WX    TMP DP  RH WIND       PRES   REMARKS
LINCOLN        PTSUNNY   65  60  84 VRB3      29.95R
OMAHA EPPLEY   MOSUNNY   68  58  70 SE3       29.94R
BEATRICE       CLOUDY    66  63  89 NE3       29.94S
FALLS CITY     CLOUDY    65  63  93 E3        29.94S FOG
NEBRASKA CITY  CLOUDY    65  57  75 SE5       29.95S
PLATTSMOUTH    SUNNY     68  59  73 E5        29.94S
$$

NEZ044-045-051>053-067-171700-
OMAHA AREA

CITY           SKY/WX    TMP DP  RH WIND       PRES   REMARKS
OMAHA EPPLEY   MOSUNNY   68  58  70 SE3       29.94R
OFFUTT AFB     SUNNY     69  65  86 E5        29.94R
PLATTSMOUTH    SUNNY     68  59  73 E5        29.94S
WAHOO          FAIR      69  58  68 CALM      29.94S
$$


USA.gov is the U.S. government's official web portal to all federal, state and local government web resources and services.